Hourly Data Report for June 17, 2012

HALIFAX STANFIELD INT'L A
NOVA SCOTIA

44°52'48.060" N
63°30'00.050" W
145.40 m
8202250
71395
YHZ

Download Data

Hourly Data (June 2012)
Hourly Data Report for June 17, 2012
TIME
LST
Temp Definition
°C
Dew Point Definition
°C
Rel Hum Definition
%
Precip. Amount Definition
mm

Wind Dir Definition
10's deg

Wind Spd Definition
km/h
Visibility Definition
km
Stn Press Definition
kPa
Hmdx Definition


Wind Chill Definition


Weather Definition


00:00 8.1 4.6 79   12 4 24.1 100.92     Mainly Clear
01:00 7.4 4.9 84   2 6 24.1 100.88     Mainly Clear
02:00 6.7 4.8 88   2 6 24.1 100.85     Mainly Clear
03:00 6.0 4.6 91   4 9 24.1 100.81     Mainly Clear
04:00 5.7 4.4 91   4 9 24.1 100.82     Mainly Clear
05:00 5.9 4.5 91   4 9 24.1 100.83     Mainly Clear
06:00 7.7 5.9 88   4 9 24.1 100.83     Mainly Clear
07:00 10.5 7.1 79   11 7 24.1 100.85     Mainly Clear
08:00 13.0 6.1 63     0 24.1 100.87     Mainly Clear
09:00 13.8 6.1 60   4 7 24.1 100.85     Mainly Clear
10:00 14.5 5.8 56     0 24.1 100.81     Mostly Cloudy
11:00 15.0 7.9 62   11 7 24.1 100.79     Mostly Cloudy
12:00 16.7 8.8 60   12 15 24.1 100.76     Mostly Cloudy
13:00 16.6 8.4 58   18 9 24.1 100.72     Mostly Cloudy
14:00 16.0 9.6 66   20 20 24.1 100.68     Mostly Cloudy
15:00 15.6 8.4 62   19 17 24.1 100.66     Mostly Cloudy
16:00 15.9 8.4 61   15 13 24.1 100.60     Mainly Clear
17:00 15.3 8.0 62   16 17 24.1 100.58     Mainly Clear
18:00 13.8 8.1 68   16 17 24.1 100.56     Mainly Clear
19:00 11.5 7.9 79   15 19 24.1 100.55     Mainly Clear
20:00 9.2 7.4 88   15 19 24.1 100.53     Mainly Clear
21:00 8.6 7.2 91   15 19 24.1 100.60     Mostly Cloudy
22:00 8.4 7.2 92   15 13 19.3 100.64     Cloudy
23:00 8.3 6.9 91   15 13 6.4 100.63     Fog

Notes on Data Quality.

Legend

  • E = Estimated
  • M = Missing
  • NA = Not Available*
  • [empty] = Indicates an unobserved value
Date modified: